Location: Kitt Peak
(31.9639°N, 111.5992°W)
Time: 05:59:22
(UTC-07:00)

NOAA 19 - Visible Passes

Search period start: 17 September 2024 00:00
Search period end: 27 September 2024 00:00
Orbit: 838 x 859 km, 99.0° (Epoch: 17 September)

Date Brightness Start Highest point End Pass type
(mag) Time Alt. Az. Time Alt. Az. Time Alt. Az.
17 Sep 7.2 20:19:14 14° NE 20:19:14 14° NE 20:20:26 10° NNE visible
17 Sep 7.7 22:01:13 16° NNW 22:01:13 16° NNW 22:02:18 10° NNW visible
18 Sep 7.3 20:06:48 11° NE 20:06:48 11° NE 20:07:12 10° NE visible
18 Sep 7.5 21:48:46 17° NNW 21:48:46 17° NNW 21:50:01 10° NNW visible
19 Sep 7.4 21:36:20 18° NNW 21:36:20 18° NNW 21:37:40 10° NNW visible
20 Sep 7.3 21:23:53 18° N 21:23:53 18° N 21:25:14 10° N visible
21 Sep 7.3 21:11:27 17° N 21:11:27 17° N 21:12:43 10° N visible
22 Sep 7.3 20:59:00 16° N 20:59:00 16° N 21:00:08 10° N visible
23 Sep 7.4 20:46:34 14° NNE 20:46:34 14° NNE 20:47:28 10° N visible
24 Sep 7.4 20:34:07 12° NNE 20:34:07 12° NNE 20:34:41 10° NNE visible
25 Sep 7.5 20:21:40 10° NNE 20:21:40 10° NNE 20:21:44 10° NNE visible
26 Sep 8.0 21:51:11 10° NNW 21:51:11 10° NNW 21:51:17 10° NNW visible
